Wind_Speed
100 99 97 96 95 93 92 91 91 90 90 89 88 87 87 87 88 88 88 88 88 89 89 89 89 89 89 90 91 91 92 92 93 93 93 93 94 94 94 94 94 94 95 95 95 95 96 96 96 96 96 95 94 94 93 93 93 92 92 92 92 92 93 93 93 93 94 95 97 99 101 102 103 102 99 95 91 88 87 87 88 89 90 91 92 92
97 96 94 93 92 91 90 89 88 88 88 87 86 86 85 85 85 85 85 86 87 87 87 87 87 87 87 88 88 89 89 90 90 90 90 90 90 90 91 91 91 91 91 91 92 92 92 92 92 92 92 92 91 90 90 89 89 89 89 88 88 88 89 89 90 90 90 91 93 95 97 99 100 100 99 96 92 89 87 86 86 87 88 89 89 90
95 93 92 90 89 89 88 87 87 87 87 86 85 84 84 83 83 83 83 84 85 85 86 86 86 85 86 86 86 86 87 87 87 87 87 87 87 87 87 87 87 88 88 88 88 88 88 88 89 89 89 88 88 87 86 86 85 85 85 85 85 85 85 85 86 86 87 87 89 91 93 95 97 97 97 95 92 89 87 85 85 85 86 86 87 87
92 91 89 88 87 87 86 86 85 85 85 85 84 83 83 82 82 82 82 82 83 84 84 85 84 84 84 84 84 84 85 85 85 85 84 84 84 84 84 84 84 84 85 85 85 85 85 85 85 85 85 85 85 84 83 83 82 82 82 81 82 82 82 82 83 83 84 84 85 87 89 91 93 94 94 93 91 89 87 85 84 84 84 84 84 85
90 89 88 87 86 85 85 84 84 84 84 83 83 82 82 81 81 80 80 81 82 82 83 83 83 83 83 83 82 82 83 83 82 82 82 81 81 81 81 81 81 81 82 82 82 82 82 82 82 82 82 82 82 81 81 80 79 79 78 78 78 78 79 79 79 80 81 81 82 83 85 87 89 90 91 91 90 88 86 85 84 84 83 83 83 83
88 87 87 86 85 85 84 83 83 83 83 82 82 81 81 80 80 79 79 80 80 81 82 82 82 82 82 81 81 80 80 80 80 79 79 79 79 79 79 79 79 79 79 79 79 79 79 79 79 79 79 79 79 79 78 77 76 76 75 75 75 75 76 76 76 77 78 78 79 80 81 83 85 87 88 88 88 86 85 84 83 83 82 82 81 81
86 86 85 85 85 84 83 82 82 82 81 81 80 80 79 79 79 79 79 79 79 80 80 81 81 81 81 80 79 78 78 78 77 77 77 76 76 76 76 76 76 76 77 77 77 77 77 77 77 77 77 76 76 76 76 75 74 73 73 73 73 73 73 73 74 75 75 75 76 77 78 80 81 83 84 85 85 84 83 83 82 82 82 81 80 80
86 85 84 84 84 84 83 82 81 81 80 80 79 78 78 78 78 78 78 78 78 79 79 80 80 80 79 78 77 76 76 75 75 75 74 74 74 74 74 74 74 74 74 74 74 74 75 75 75 74 74 74 74 74 73 73 72 71 71 70 70 70 71 71 72 72 72 73 73 74 75 76 78 80 81 82 82 82 82 81 81 81 81 80 79 79
85 85 84 84 84 83 83 82 81 80 80 79 78 77 76 76 77 77 77 77 77 78 78 78 78 78 77 76 75 74 73 73 72 72 72 72 72 71 72 72 72 72 72 72 72 72 72 72 72 72 72 72 71 71 71 70 70 69 69 68 68 68 68 69 70 70 70 70 71 71 72 74 75 77 78 79 80 80 80 80 80 80 80 79 79 78
85 85 84 84 83 83 83 82 80 79 79 78 77 76 75 75 75 75 75 76 76 77 77 77 77 76 75 75 74 73 72 71 70 70 70 70 70 69 69 69 69 69 69 69 69 69 69 69 69 70 70 69 69 69 68 68 68 68 67 66 66 66 66 67 67 67 68 68 68 69 70 71 73 74 75 76 77 78 78 78 78 79 79 78 78 77
85 85 84 84 83 83 82 81 80 79 77 77 76 75 74 74 73 73 73 74 75 75 75 75 75 74 74 73 72 71 70 69 68 68 68 68 68 67 67 67 67 67 67 67 67 67 67 67 67 67 67 67 67 66 66 66 66 65 65 64 64 64 64 65 65 65 65 66 66 67 68 69 70 71 73 74 75 76 76 77 77 77 77 77 77 76
85 85 84 84 83 82 82 81 79 78 77 75 74 73 73 72 72 72 71 72 72 73 74 74 73 72 72 71 70 70 69 67 66 66 66 66 66 66 65 65 65 64 64 64 64 64 64 64 64 64 64 64 64 64 64 64 64 63 63 63 62 62 62 63 63 63 63 64 64 64 65 66 67 69 70 71 72 73 74 75 75 76 76 76 76 75
84 84 83 83 82 82 81 80 78 77 75 74 73 72 71 71 70 70 70 70 70 71 71 72 71 70 70 69 68 67 67 66 65 64 64 64 64 64 63 63 62 62 62 61 61 61 62 62 62 62 62 61 61 61 61 61 61 61 61 61 60 60 61 61 61 61 62 62 62 62 63 64 65 66 68 69 70 71 72 73 74 74 75 75 75 75
83 82 82 81 81 80 80 79 77 76 74 73 71 70 69 69 68 68 68 68 68 68 69 69 69 69 68 67 66 65 64 64 63 63 62 62 62 61 61 60 60 59 59 59 59 59 59 59 59 59 59 59 58 58 58 58 59 59 59 59 59 59 59 59 59 60 60 60 60 60 61 62 63 64 65 67 68 69 71 71 72 73 73 74 74 74
81 81 80 79 79 78 78 77 76 74 72 71 70 68 67 67 66 66 66 66 66 66 66 67 67 66 66 65 64 63 63 62 62 61 60 60 59 59 59 58 58 57 57 57 57 57 57 57 57 57 56 56 56 55 55 56 56 56 57 57 57 57 57 57 57 57 57 57 57 58 58 59 60 62 63 65 66 68 69 70 71 72 72 73 73 73
79 78 78 77 76 76 76 75 74 73 71 69 68 66 65 65 64 64 64 63 63 64 64 64 64 64 64 63 63 62 61 60 59 58 58 57 57 57 57 56 55 55 54 55 54 54 54 55 54 54 53 53 53 53 53 53 54 54 54 55 55 55 55 55 55 55 55 55 55 56 56 57 58 60 61 63 65 66 68 69 70 71 71 72 72 72
77 76 75 75 74 74 73 73 72 70 69 67 66 64 63 63 62 62 61 61 61 61 61 61 61 61 61 62 61 61 60 58 56 55 55 55 56 56 55 55 53 52 52 52 52 52 52 52 52 51 51 50 50 50 50 50 51 52 52 52 52 52 52 52 52 52 53 53 53 54 54 56 57 58 60 61 63 65 66 67 69 69 70 70 71 71
74 73 73 72 72 71 71 70 69 68 66 65 63 62 61 61 60 59 59 58 58 58 58 59 59 59 59 60 60 59 57 55 53 52 53 53 54 54 54 53 51 50 50 50 50 50 50 49 49 48 48 47 47 47 47 48 48 49 49 50 50 50 50 50 50 50 50 51 51 52 53 54 55 57 58 60 61 63 65 66 67 68 69 69 70 70
71 71 70 70 69 69 68 68 67 66 64 62 61 60 59 58 57 57 56 56 56 56 56 56 56 57 57 58 58 56 54 52 51 50 51 52 53 53 52 50 49 48 48 48 48 48 47 47 46 46 45 45 44 44 44 45 45 46 46 47 47 47 47 47 47 48 48 49 50 51 52 53 54 55 57 58 60 61 63 64 66 67 67 68 69 69
69 68 68 68 67 66 65 65 64 63 61 60 59 58 57 56 55 54 54 53 53 53 54 54 54 54 55 55 55 54 52 50 49 49 50 51 51 51 50 48 47 46 46 46 46 45 45 44 44 43 43 42 42 42 42 42 43 43 44 44 44 45 45 45 46 46 47 48 49 50 51 52 53 54 55 57 58 60 61 63 64 65 66 67 68 68
67 67 66 66 65 64 63 62 61 60 59 57 56 55 54 54 53 52 52 51 51 51 51 51 52 52 52 52 52 51 49 48 47 48 48 49 50 49 48 46 45 44 44 44 44 43 42 42 41 41 41 40 40 40 40 40 40 41 41 42 42 43 43 44 45 45 46 47 48 49 50 51 52 53 54 55 56 58 59 61 62 63 65 65 66 67
66 65 65 64 63 62 61 59 59 58 57 55 54 53 52 51 51 50 50 49 49 49 49 49 50 50 50 50 49 48 47 47 46 47 47 48 48 47 45 44 43 42 42 42 42 41 40 40 39 39 39 38 38 38 38 38 38 39 39 40 40 41 42 43 44 45 46 46 47 48 48 49 50 51 52 54 55 56 58 59 60 62 63 64 65 66
65 64 63 62 61 60 58 57 56 55 54 53 52 51 50 49 49 48 48 47 47 47 47 47 48 48 47 47 47 46 45 45 45 45 46 46 46 45 43 41 41 41 41 40 40 39 38 38 38 37 37 37 36 36 36 36 36 37 37 38 39 40 41 42 43 44 45 45 46 47 47 48 49 50 51 52 53 55 56 58 59 60 62 63 64 65
64 63 62 61 60 58 56 55 53 52 51 50 50 49 48 47 47 46 46 45 45 45 45 45 45 45 45 45 44 44 44 43 44 44 44 44 44 42 41 40 39 39 39 38 38 37 37 37 36 36 35 35 35 35 34 34 35 35 36 37 38 39 41 42 43 43 44 45 45 46 46 47 48 49 50 51 52 53 55 56 58 59 60 62 63 64
62 61 60 59 58 56 54 53 51 50 49 48 48 47 46 46 45 44 44 43 43 43 43 44 43 43 43 43 42 42 42 42 42 42 42 42 41 40 39 38 37 37 37 37 36 36 36 35 35 35 34 34 34 33 33 33 34 34 35 36 38 39 40 41 42 43 43 44 44 45 45 46 47 48 49 50 51 52 53 55 56 58 59 60 62 63
60 59 58 57 55 54 52 50 49 48 47 46 46 45 44 44 43 43 42 42 42 42 41 41 41 41 41 41 40 40 40 40 40 40 40 39 39 38 37 36 36 36 36 36 35 35 34 34 34 34 33 33 33 32 33 33 33 34 35 36 38 39 40 41 42 42 43 43 44 44 45 46 46 47 48 49 50 51 53 54 55 57 58 59 60 61
58 57 56 54 53 52 50 48 47 45 45 44 44 43 43 42 41 41 40 40 40 40 40 39 39 39 39 38 38 38 38 38 38 38 37 37 37 36 35 35 35 35 35 35 34 34 34 33 33 33 32 32 32 32 32 32 33 34 35 36 38 39 40 40 41 42 42 43 43 44 44 45 46 46 47 48 49 50 52 53 54 55 57 58 59 60
56 54 53 52 51 49 48 46 45 44 43 42 42 41 41 40 39 39 39 38 38 38 38 37 37 37 36 36 36 35 35 35 35 35 35 35 35 35 34 34 34 35 34 34 33 33 33 33 33 32 32 32 32 32 32 32 33 34 35 36 37 38 39 40 41 41 42 42 43 43 44 44 45 46 46 47 48 50 51 52 53 54 55 56 57 58
54 52 51 50 48 47 46 44 43 42 41 41 40 39 39 38 38 37 37 37 36 36 36 35 35 34 34 33 33 33 32 32 33 33 33 34 34 34 34 34 34 34 34 33 33 33 32 32 32 32 32 31 31 31 32 32 33 34 35 36 37 38 39 39 40 41 41 41 42 43 43 44 44 45 46 47 48 49 50 51 52 53 54 55 56 57
52 50 49 47 46 45 44 42 41 40 40 39 38 38 37 36 36 35 35 35 34 34 34 33 33 32 31 31 30 30 30 30 30 31 32 32 33 33 33 33 33 33 33 33 32 32 32 31 31 31 31 31 31 31 32 32 33 34 35 36 37 38 38 39 39 40 40 41 41 42 42 43 44 44 45 46 47 48 49 50 51 51 52 53 54 56
50 48 47 45 44 43 42 41 40 39 38 37 37 36 35 35 34 34 33 33 32 32 32 31 30 30 29 28 28 28 28 28 29 30 31 32 32 33 33 33 33 33 32 32 32 31 31 30 30 30 30 30 30 31 32 32 33 34 35 36 37 38 38 38 39 39 40 40 41 41 42 42 43 44 45 45 46 47 48 49 50 50 51 52 53 54
48 47 45 44 42 41 40 39 39 37 37 36 35 35 34 33 32 32 31 31 30 30 29 29 28 27 26 26 26 26 26 27 29 30 31 31 32 32 32 32 32 32 31 31 31 30 30 29 29 29 29 30 30 31 31 32 33 34 35 36 36 37 37 38 38 39 39 40 40 41 41 42 42 43 44 44 45 46 47 48 49 49 50 51 52 53
46 45 43 42 41 40 39 38 37 36 36 35 34 33 32 31 31 30 29 29 28 27 27 26 26 25 25 24 24 25 26 27 28 30 30 31 31 31 31 31 31 31 30 30 29 29 28 28 28 28 28 29 29 30 31 32 33 34 35 35 36 36 36 37 37 38 38 39 39 40 41 41 42 42 43 44 45 45 46 47 48 49 49 50 51 53
44 43 42 41 40 39 38 37 36 35 34 33 32 31 30 29 29 28 27 27 26 25 25 24 24 23 23 23 24 24 25 27 28 29 30 30 30 30 30 30 30 29 29 28 28 27 27 26 27 27 28 28 29 30 31 32 33 34 34 35 35 35 36 36 36 37 38 38 39 39 40 41 41 42 42 43 44 44 45 46 47 48 49 50 51 52
42 41 40 39 38 38 37 36 34 33 32 31 30 29 28 27 27 26 25 25 24 23 23 22 22 22 22 22 23 24 25 26 28 28 29 29 29 29 28 28 28 28 27 27 26 26 25 25 26 26 27 28 28 30 31 32 32 33 33 34 34 34 35 35 36 36 37 37 38 39 39 40 40 41 42 42 43 44 44 45 46 47 48 49 50 51
41 40 39 38 37 36 35 34 33 32 30 29 28 27 26 25 25 24 23 23 22 21 21 21 21 21 21 22 23 24 25 26 27 27 27 27 27 27 26 26 26 26 26 25 25 25 25 25 25 26 26 27 28 29 30 31 32 32 33 33 33 33 34 34 35 35 36 37 37 38 38 39 39 40 40 41 42 42 43 44 45 46 47 48 49 50
39 38 37 37 36 35 33 32 31 30 29 27 26 25 24 24 23 22 21 21 20 20 20 20 20 20 21 21 22 23 24 25 25 25 25 25 25 25 24 24 24 24 24 24 24 24 24 24 25 25 26 27 28 29 30 31 31 32 32 32 32 33 33 34 34 35 35 36 36 37 37 38 38 39 39 40 41 41 42 43 44 45 46 47 48 50
37 37 36 35 34 33 32 31 29 28 27 25 25 24 23 22 21 21 20 20 19 19 19 19 19 19 20 21 21 22 23 23 23 23 23 23 23 23 23 23 24 24 24 24 23 23 24 24 25 25 26 27 28 29 30 30 31 31 31 31 31 32 32 33 34 34 35 35 36 36 37 37 37 38 38 39 40 41 42 42 43 44 45 47 48 49
36 35 34 33 32 31 30 29 27 26 25 24 23 22 22 21 20 20 19 19 18 18 18 18 18 19 19 20 20 21 21 21 21 21 22 22 22 22 22 23 23 23 23 23 23 23 23 23 24 25 26 27 28 29 29 30 30 30 30 30 31 31 32 32 33 33 34 34 35 35 36 36 36 37 38 38 39 40 41 42 43 44 45 46 47 48
34 33 33 32 31 29 28 27 26 24 23 23 22 21 21 20 19 19 18 18 18 17 17 17 18 18 18 19 19 19 20 20 20 20 20 21 21 22 22 22 22 22 22 22 22 22 23 23 24 25 26 27 28 28 28 28 28 28 29 29 30 30 31 31 32 33 33 33 34 34 35 35 36 36 37 38 39 40 40 41 42 44 45 46 47 48
33 32 31 30 29 28 26 25 24 23 22 21 20 20 19 19 18 18 17 17 17 17 17 17 17 17 17 18 18 18 19 19 19 20 20 20 21 21 21 21 21 21 21 21 22 22 22 23 24 25 26 26 27 27 27 27 27 27 27 28 28 29 30 31 31 32 32 33 33 34 34 34 35 36 37 37 38 39 40 41 42 43 44 45 46 48
31 30 29 28 27 26 25 24 23 22 21 20 19 19 18 18 17 17 17 16 16 16 16 16 16 16 17 17 17 18 18 18 19 19 19 20 20 20 20 20 21 21 21 21 21 21 22 22 23 24 25 25 26 26 26 25 25 25 26 26 27 28 29 30 30 31 31 32 32 33 33 34 34 35 36 37 37 38 39 40 41 43 44 45 46 47
30 29 27 26 25 24 23 22 21 20 19 18 18 17 17 17 16 16 16 16 15 15 15 15 16 16 16 16 17 17 18 18 18 19 19 19 19 20 20 20 20 20 20 20 21 21 22 22 23 23 24 24 24 24 24 24 24 24 25 25 26 27 28 29 29 30 30 31 31 32 32 33 34 35 35 36 37 38 39 40 41 42 43 44 45 46
28 27 26 25 24 23 22 21 19 19 18 17 17 16 16 16 16 16 15 15 15 15 15 15 15 16 16 16 17 17 17 18 18 18 18 19 19 19 19 19 19 20 20 20 20 21 21 22 22 23 23 23 23 23 22 23 23 23 24 25 25 26 27 27 28 29 29 30 30 31 32 32 33 34 35 36 37 38 39 40 41 42 43 44 45 46
26 25 24 23 22 21 20 19 18 18 17 16 16 16 16 15 15 15 15 15 15 15 15 15 15 16 16 16 17 17 17 17 17 18 18 18 18 18 19 19 19 19 19 19 20 20 21 21 21 21 21 21 21 21 21 22 22 23 23 24 25 25 26 26 27 28 28 29 29 30 31 32 33 34 35 36 37 38 39 40 41 42 43 44 45 46
25 24 23 22 21 20 19 18 17 17 16 16 15 15 15 15 15 15 15 15 15 15 15 15 15 15 16 16 16 17 17 17 17 17 17 17 18 18 18 18 18 18 19 19 19 19 20 20 20 20 20 20 21 21 21 21 22 22 23 23 24 25 25 26 26 27 27 28 29 30 31 32 33 34 35 36 37 38 39 39 40 41 42 43 44 45
23 22 21 20 19 18 18 17 16 16 15 15 15 15 15 15 15 14 15 14 15 15 15 15 15 15 15 16 16 16 16 16 16 16 17 17 17 17 17 17 17 18 18 18 18 18 19 19 19 19 19 19 20 20 20 21 21 22 22 23 23 24 25 25 26 26 27 28 28 29 31 32 33 34 35 36 37 38 38 39 40 41 41 42 43 44
22 21 20 19 18 17 17 16 16 15 15 15 14 14 14 14 14 14 14 14 14 14 14 14 15 15 15 15 15 15 15 15 15 16 16 16 16 16 16 17 17 17 17 17 17 17 18 18 18 18 19 19 19 19 20 20 21 21 22 23 23 24 24 25 25 26 26 27 28 29 30 31 32 33 34 35 36 37 38 39 39 40 41 41 43 43
20 19 19 18 17 16 16 15 15 15 14 14 14 14 14 14 14 14 14 14 14 14 14 14 14 14 14 14 14 14 14 15 15 15 15 15 16 16 16 16 16 16 16 17 17 17 17 17 18 18 18 18 19 19 20 20 20 21 22 22 23 23 24 24 25 26 26 27 28 29 30 31 32 33 34 35 36 37 38 39 39 40 40 41 42 43
19 18 18 17 16 15 15 14 14 14 14 14 14 14 13 13 13 13 13 13 13 13 13 13 13 13 13 13 13 13 13 14 14 14 14 15 15 15 15 15 15 15 16 16 16 17 17 17 17 18 18 18 19 19 19 20 20 21 21 22 22 23 24 24 25 26 26 27 28 29 30 31 31 33 34 35 36 37 38 39 39 40 40 41 42 42
18 17 16 16 15 14 14 14 13 13 13 13 13 13 13 13 12 12 12 12 12 12 12 12 12 12 12 12 12 12 12 13 13 13 13 14 14 14 14 15 15 15 15 16 16 16 17 17 17 18 18 18 19 19 19 20 20 20 21 22 22 23 24 25 25 26 26 27 28 28 29 30 31 32 34 35 36 37 38 39 40 40 41 41 42 42
Wind_Direction
295 294 293 292 291 290 289 288 287 286 285 284 283 282 281 280 280 279 278 278 277 276 275 274 273 273 272 271 271 270 270 270 269 269 269 269 268 268 268 268 267 267 267 267 267 267 267 266 266 266 266 266 265 265 264 264 263 262 262 261 261 260 259 259 258 258 257 258 258 259 259 260 261 262 262 261 258 256 254 253 252 251 251 252 252 252
295 294 293 292 291 290 289 288 288 287 286 285 284 282 281 281 280 279 278 278 277 276 275 274 273 272 272 271 271 270 270 269 269 269 269 269 268 268 268 268 267 267 267 267 267 267 266 266 266 266 266 266 265 265 264 263 263 262 262 261 260 259 259 258 257 257 256 256 256 256 257 258 259 260 260 260 259 257 255 253 252 251 251 251 251 251
295 294 293 292 292 291 290 289 288 287 286 285 284 283 282 281 280 279 278 278 277 276 275 274 273 273 272 271 271 270 270 269 269 269 269 268 268 268 268 268 268 267 267 267 267 266 266 266 266 266 266 265 265 264 264 263 262 262 261 260 260 259 258 257 257 256 255 254 254 254 255 256 257 258 258 258 258 257 256 254 252 251 250 250 250 250
295 294 294 293 292 291 290 290 289 288 287 286 285 284 283 281 280 279 278 278 277 276 275 275 274 273 272 271 271 270 270 270 269 269 269 269 268 268 268 268 268 267 267 267 267 266 266 266 266 265 265 265 265 264 263 263 262 261 260 260 259 258 257 256 256 255 254 253 252 252 252 253 254 255 256 257 257 256 255 254 252 251 250 249 249 249
296 295 294 294 293 292 291 290 289 288 287 286 285 284 283 282 281 280 279 277 277 276 275 275 274 273 272 272 271 271 270 270 270 270 269 269 269 269 268 268 268 267 267 267 266 266 266 265 265 265 265 264 264 264 263 262 261 261 260 259 258 258 257 256 255 254 253 252 251 251 250 251 252 253 254 254 255 255 254 253 252 251 250 249 248 248
296 296 295 294 294 292 291 290 289 288 287 286 285 284 283 282 281 280 279 277 276 276 275 274 274 273 273 272 271 271 271 271 270 270 270 270 269 269 268 268 268 267 267 266 266 266 265 265 265 264 264 264 263 263 262 262 261 260 259 258 258 257 256 255 254 253 252 251 250 250 249 249 250 251 251 252 253 253 252 252 251 250 249 248 247 247
297 297 296 295 294 293 292 291 290 289 287 286 285 284 283 282 281 280 279 277 276 275 275 274 274 273 273 272 272 272 271 271 271 271 270 270 269 269 268 268 268 267 267 266 266 265 265 265 264 264 263 263 263 262 262 261 261 260 259 258 257 256 255 254 253 252 251 251 250 249 248 248 248 249 249 250 251 251 250 250 250 249 248 247 247 246
298 297 297 296 295 294 292 291 290 289 288 287 286 284 283 282 281 280 278 277 276 275 274 274 274 273 273 273 273 272 272 272 271 271 270 270 269 269 268 268 267 267 266 266 265 265 265 264 264 263 263 263 262 262 261 261 260 259 259 257 257 256 255 254 253 252 251 250 249 248 247 247 247 247 247 248 248 249 249 248 248 248 247 247 246 245
299 298 297 296 295 294 293 292 290 289 288 287 286 285 283 282 281 280 278 277 276 275 275 274 274 274 274 274 273 273 272 272 271 271 270 270 269 269 268 268 267 266 266 266 265 265 264 264 264 263 263 262 262 261 261 260 260 259 258 257 256 255 254 253 253 252 251 250 249 248 247 246 246 245 246 246 246 247 247 247 246 246 246 246 245 244
300 299 298 297 296 295 293 292 291 290 288 287 286 285 283 282 280 279 278 277 276 275 275 274 274 274 274 274 273 273 272 272 271 271 270 270 269 269 268 267 267 266 266 266 265 265 264 264 263 263 262 262 261 260 260 259 259 258 257 257 255 255 254 253 252 252 251 250 248 247 246 245 245 244 244 244 245 245 245 245 245 245 245 245 244 243
300 299 298 297 296 295 294 293 291 290 289 287 286 285 283 282 281 279 278 277 276 275 275 274 274 274 273 273 273 273 272 272 271 271 270 270 269 269 268 267 267 266 266 266 265 265 264 264 263 262 262 261 260 260 259 258 258 257 257 256 255 254 253 253 252 251 250 249 248 247 246 245 244 244 243 243 243 243 243 243 243 243 243 243 243 243
301 300 299 298 297 296 294 293 292 290 289 288 286 285 284 282 281 279 278 277 276 275 274 274 274 273 273 273 273 272 272 272 271 271 270 269 269 268 268 267 267 266 266 266 265 265 264 263 262 262 261 260 260 259 258 258 257 257 256 255 254 254 253 252 252 251 250 249 248 247 246 245 244 243 243 242 242 242 242 242 242 242 242 242 242 242
301 300 299 298 297 296 295 293 292 291 290 288 287 286 284 282 281 279 278 276 275 274 274 274 273 273 272 272 272 272 272 271 271 270 269 269 268 268 268 267 267 267 266 266 265 265 264 263 262 261 261 260 259 258 258 257 256 256 255 255 254 253 252 252 251 251 250 249 248 247 245 244 243 243 242 241 241 241 241 240 240 240 240 240 241 240
301 300 299 298 297 296 295 293 292 291 290 289 287 286 285 283 281 280 278 277 275 274 273 273 273 273 272 272 271 271 271 270 270 269 269 268 268 268 268 267 267 267 266 266 265 264 264 263 262 261 260 259 259 258 257 256 256 255 255 254 253 253 252 251 251 250 250 249 248 247 245 244 243 242 241 241 240 240 239 239 239 239 239 239 239 239
301 300 299 298 297 296 295 293 292 291 290 289 288 287 285 283 282 280 279 277 276 274 273 273 272 272 272 271 271 270 269 269 269 269 269 269 268 268 268 268 267 267 266 266 265 264 264 263 262 261 260 259 258 257 256 256 255 254 254 253 253 252 252 251 251 250 250 249 248 247 245 244 243 242 241 240 239 239 238 238 238 238 237 237 238 238
301 300 299 298 297 296 295 294 293 292 291 290 289 287 286 284 282 280 279 277 276 275 273 273 272 272 271 271 270 269 268 268 268 269 269 269 269 268 268 267 267 267 266 266 265 264 264 263 262 261 261 260 258 257 256 255 255 254 254 253 252 252 251 251 251 250 250 249 248 247 245 244 242 241 240 239 238 238 237 237 236 236 236 236 236 236
302 301 299 298 297 296 295 294 293 292 291 290 289 288 286 284 282 281 279 278 276 275 273 272 271 271 270 270 269 268 268 268 269 269 269 269 268 268 267 267 267 267 266 266 265 265 264 263 263 262 261 260 259 257 256 255 254 254 253 253 252 252 251 251 251 250 250 249 248 246 245 243 242 241 239 238 238 237 236 236 236 235 235 235 235 235
302 301 299 298 297 296 295 294 293 292 291 290 289 288 286 284 283 281 279 278 276 275 273 272 271 270 269 269 268 268 268 269 269 269 268 268 267 267 267 267 267 267 266 266 266 265 264 264 264 263 262 261 259 258 257 255 254 254 253 253 253 252 252 251 251 250 249 248 247 246 244 243 241 240 239 238 237 236 235 235 234 234 234 234 233 233
302 301 300 298 297 296 295 294 293 292 291 291 289 288 286 285 283 281 279 277 276 274 273 271 270 269 268 268 268 268 269 269 268 268 267 266 266 266 266 266 267 267 266 266 266 266 265 265 264 263 262 261 259 258 257 255 254 254 253 253 253 252 251 251 250 249 248 247 246 245 243 242 241 240 238 237 236 235 235 234 233 233 233 233 232 232
303 301 300 299 297 296 295 294 293 293 292 291 289 288 286 285 283 281 279 277 275 274 272 271 269 268 268 268 268 268 268 268 267 266 266 265 265 265 266 266 267 267 266 266 266 266 265 265 264 263 262 261 259 258 256 255 254 253 253 252 252 251 251 249 249 247 246 245 244 243 242 241 240 239 238 237 236 235 234 233 233 232 232 231 231 231
304 302 300 299 298 297 296 295 294 293 292 291 289 288 286 284 283 281 279 277 275 273 272 270 269 268 268 267 267 267 267 267 266 265 265 264 265 265 266 266 267 267 266 266 266 266 265 264 264 262 261 260 258 257 256 254 253 252 252 251 250 250 249 248 247 246 245 244 243 242 241 240 239 238 237 236 235 234 233 232 232 231 231 230 230 230
304 303 301 300 298 297 296 295 294 293 292 291 289 288 286 284 283 281 279 277 275 273 271 270 268 268 267 267 267 266 266 265 265 264 264 263 264 265 266 266 267 267 266 266 266 265 265 264 263 261 260 259 258 256 255 253 252 251 250 250 249 248 247 246 245 244 243 242 242 241 240 239 238 237 236 235 234 233 232 231 231 230 229 229 229 228
305 303 302 300 299 298 297 296 295 294 293 291 290 288 286 284 283 281 279 277 275 273 271 270 268 267 267 266 266 265 265 264 263 263 263 263 264 265 266 266 267 267 266 266 265 265 264 263 262 260 259 258 256 255 254 252 251 250 249 248 247 246 245 245 244 243 242 241 240 239 239 238 237 236 235 234 233 232 231 230 230 229 228 228 228 227
305 303 302 301 300 299 298 297 296 294 293 291 290 288 287 285 283 281 279 277 275 273 271 270 268 267 266 266 265 265 264 263 263 262 263 263 264 265 266 266 266 266 266 265 264 264 263 262 260 259 258 257 255 254 253 251 250 249 247 246 246 245 244 243 242 242 241 240 239 239 238 237 236 235 234 233 232 231 230 229 229 228 227 227 226 226
305 304 302 301 300 299 299 297 296 295 294 292 291 289 287 286 284 282 280 278 275 273 271 270 268 267 266 266 265 264 263 263 262 262 263 263 264 265 265 265 265 265 264 264 263 262 261 260 259 258 257 255 254 253 251 250 248 247 246 245 244 243 243 242 241 241 240 239 238 238 237 236 235 234 233 232 231 230 230 229 228 227 226 226 225 225
305 304 302 302 301 300 299 298 297 296 294 293 291 290 288 287 285 283 281 279 276 274 272 270 269 267 266 265 264 264 263 263 262 263 263 264 264 265 264 264 264 263 263 262 261 260 259 259 258 256 255 254 252 251 249 248 247 245 244 243 242 242 241 241 240 240 239 238 237 237 236 235 234 233 232 231 230 229 229 228 227 226 226 225 224 224
305 304 303 302 301 300 300 299 298 297 295 294 292 291 289 287 286 284 282 279 277 275 273 271 269 267 266 265 264 264 263 263 263 263 263 264 264 264 263 263 262 261 260 260 259 258 257 256 256 255 253 252 251 249 248 246 245 243 242 241 241 241 240 240 239 239 238 237 236 236 235 234 233 232 231 230 229 229 228 227 226 226 225 224 224 223
305 304 303 302 302 301 300 300 298 297 296 295 293 292 290 288 286 285 282 280 278 275 273 271 270 268 267 266 265 264 264 263 263 263 263 263 263 262 261 260 260 259 258 258 257 256 255 255 254 253 252 251 249 248 246 245 243 242 241 241 240 240 239 239 238 238 237 236 236 235 234 233 232 231 230 230 228 228 227 226 226 225 224 224 223 223
305 304 304 303 302 302 301 300 299 298 297 295 294 292 291 289 287 285 283 281 278 276 274 272 270 269 267 266 265 265 264 264 263 263 262 261 261 260 259 258 258 257 257 256 255 254 254 253 253 252 251 250 248 246 245 244 242 242 241 240 240 239 239 238 238 237 236 236 235 234 233 232 231 230 229 229 228 227 226 226 225 224 224 223 223 222
306 305 304 303 303 302 302 301 300 299 297 296 294 293 291 290 288 285 283 281 279 277 275 273 271 269 268 267 265 264 264 263 262 261 260 259 258 257 257 256 256 255 255 255 254 253 253 252 252 251 250 249 247 246 244 243 242 241 240 240 239 239 238 238 237 236 236 235 234 233 233 232 231 230 229 228 227 226 226 225 224 224 223 222 222 221
306 305 305 304 303 303 302 301 300 299 298 296 295 293 292 290 288 286 284 282 280 278 276 274 272 270 268 266 265 263 262 261 259 258 257 256 256 255 255 255 255 254 254 254 253 253 252 252 251 250 249 248 247 245 244 243 241 240 240 239 239 238 238 237 237 236 235 235 234 233 232 231 230 229 228 227 227 226 225 224 224 223 222 222 221 220
306 306 305 304 304 303 302 302 301 300 299 297 296 294 292 291 289 287 285 283 280 278 276 274 272 270 268 265 263 261 259 258 256 255 255 254 254 254 254 254 254 254 253 253 253 252 252 251 250 250 249 248 246 245 243 242 241 240 240 239 239 238 237 237 236 235 235 234 233 232 231 230 230 229 228 227 226 225 224 223 223 222 221 221 220 220
306 306 306 305 304 304 303 302 301 300 299 298 296 295 293 292 290 288 285 283 281 279 277 275 272 270 267 264 261 258 257 255 254 253 253 253 253 253 253 253 253 253 253 253 253 252 252 250 250 249 248 247 245 244 243 242 241 240 240 239 238 238 237 237 236 235 234 234 233 232 231 230 229 228 227 226 225 224 223 223 222 221 221 220 219 219
307 306 306 305 305 304 304 303 302 301 300 299 297 296 294 292 290 288 286 284 281 279 276 274 271 269 265 262 259 257 255 254 253 253 252 252 252 253 253 253 253 254 254 254 253 253 251 250 249 248 247 245 244 243 242 241 241 240 240 239 238 238 237 237 236 235 234 233 232 231 230 229 228 227 226 225 224 223 223 222 221 220 220 219 218 218
307 307 306 306 305 305 304 304 303 302 301 300 298 297 295 293 291 288 286 284 281 279 276 273 270 267 264 261 258 256 254 253 252 252 252 252 253 253 253 254 254 254 254 254 253 252 250 249 248 246 245 244 243 242 241 240 240 239 239 238 238 237 237 236 235 234 234 233 232 231 230 229 228 227 226 225 224 223 222 221 220 220 219 218 218 217
308 307 307 306 306 306 305 304 304 303 301 300 299 297 294 292 290 288 285 283 280 277 275 271 268 265 262 259 256 255 253 253 253 253 253 253 254 254 254 254 254 254 253 252 252 251 249 247 245 244 243 241 241 240 239 239 239 238 238 237 237 236 236 235 235 234 233 233 232 231 230 229 228 227 226 225 224 223 222 221 220 219 218 218 217 217
308 308 307 307 306 306 305 305 304 303 302 300 298 296 294 291 288 286 283 281 278 275 273 269 266 263 260 258 256 254 254 254 254 254 254 255 254 254 254 253 253 252 251 250 249 248 246 245 243 242 241 240 239 238 238 237 237 237 236 236 236 235 235 234 234 233 233 232 231 231 230 229 228 227 226 224 223 222 221 220 219 219 218 217 217 217
308 308 308 307 307 306 306 305 304 303 301 300 297 295 292 289 287 284 281 279 276 274 270 267 265 262 260 258 256 256 255 255 255 255 255 255 254 253 252 251 250 249 248 247 246 245 244 242 241 240 239 238 237 237 236 236 236 235 235 235 234 234 233 233 232 232 232 231 231 230 229 228 227 226 225 224 222 221 220 219 219 218 217 217 217 216
308 308 308 307 307 306 306 305 304 302 301 299 297 294 292 289 286 283 280 278 275 272 270 267 264 262 260 259 257 257 256 256 255 255 254 253 252 251 250 249 248 247 246 245 244 243 242 240 239 239 238 237 236 236 236 235 235 234 234 233 233 233 232 232 231 231 230 230 229 229 228 227 226 225 224 223 221 220 219 218 218 217 217 216 216 216
309 308 308 308 307 307 305 304 303 302 300 298 296 294 292 289 286 283 280 278 275 273 270 267 265 263 261 260 258 257 256 255 254 253 252 251 250 249 248 247 246 246 245 244 243 241 240 239 238 237 237 236 236 235 235 235 234 234 233 233 232 232 231 231 231 230 229 229 228 227 227 226 225 224 223 222 220 219 219 218 217 217 216 216 215 215
309 309 308 308 307 307 305 304 303 302 300 298 296 294 292 289 286 284 281 278 275 272 270 267 265 263 261 260 258 257 255 254 252 251 250 249 248 248 247 246 245 245 244 243 241 240 238 237 236 236 236 236 235 235 235 234 233 233 232 232 231 231 230 230 229 229 228 227 227 226 225 224 223 222 221 220 219 218 218 217 216 216 216 215 215 215
309 309 309 308 308 307 306 304 303 301 300 298 296 294 291 289 286 283 280 277 275 272 270 267 265 263 261 259 257 255 253 252 251 249 248 248 247 247 246 245 244 243 242 241 239 238 236 235 235 235 234 235 234 234 234 233 232 232 231 230 230 230 229 228 228 227 227 226 225 224 223 222 221 220 220 219 218 217 216 216 215 215 215 214 214 214
310 310 310 309 308 307 306 305 303 301 300 298 295 293 290 288 285 282 279 276 273 271 268 266 264 262 259 258 256 254 252 251 250 249 248 247 247 246 245 244 243 242 240 239 237 236 235 234 233 233 233 233 233 233 232 231 230 229 229 228 228 227 227 226 226 225 225 224 224 223 222 220 219 218 218 217 216 215 215 214 214 214 214 214 213 213
311 311 310 310 309 308 306 305 303 301 299 297 294 291 289 286 284 281 278 275 272 270 267 265 262 260 258 256 255 253 252 251 250 249 248 247 246 245 244 243 241 241 239 237 236 235 234 233 232 232 232 232 231 231 230 229 228 227 226 226 225 225 225 225 224 224 223 222 221 220 219 218 217 216 215 215 214 214 213 213 213 213 213 212 213 213
312 312 311 310 309 308 306 304 302 300 298 296 293 290 288 285 282 279 276 274 271 268 266 263 261 260 257 256 254 253 252 251 250 249 248 247 246 245 244 243 241 240 239 237 236 234 234 233 232 232 231 231 229 228 227 226 225 224 223 223 222 222 222 222 221 221 220 219 219 218 217 216 215 214 213 212 212 212 211 211 211 211 211 211 211 211
313 312 311 310 309 308 305 304 302 299 297 295 292 289 287 284 281 278 275 272 270 268 265 264 261 259 258 256 255 254 253 252 251 250 249 248 246 245 243 242 240 239 238 237 236 235 234 233 232 231 230 229 228 226 225 223 222 221 220 220 219 218 218 218 218 217 217 216 216 215 214 214 213 212 212 211 210 210 210 210 210 210 210 210 211 211
314 313 312 310 309 307 306 304 302 299 297 294 291 289 286 283 281 277 275 272 270 268 266 265 263 262 260 258 258 256 255 253 252 251 249 247 246 245 243 241 239 238 237 236 235 234 233 231 230 229 228 227 225 224 222 221 220 219 218 217 216 215 215 215 214 214 213 213 213 212 212 212 211 211 210 209 209 209 208 208 209 209 209 209 210 210
314 313 312 311 310 308 306 304 302 300 297 294 291 289 286 283 281 279 277 275 273 271 270 268 266 264 262 261 260 258 256 254 253 251 249 247 245 243 242 239 238 237 236 234 233 232 230 229 228 227 226 224 223 222 220 219 217 216 215 214 213 212 212 211 211 211 210 210 210 210 210 210 209 209 209 208 207 207 207 207 207 208 208 209 209 209
315 314 313 312 311 309 307 306 303 300 297 294 291 289 286 285 283 281 279 277 276 274 272 270 268 267 264 262 260 259 257 254 252 250 248 246 244 242 240 238 236 234 233 232 231 229 228 227 226 225 224 222 221 219 218 217 216 214 213 211 210 210 209 208 207 207 207 207 207 207 208 208 208 208 207 207 206 206 205 205 206 206 207 208 208 209
316 315 314 313 312 310 308 306 303 301 297 295 292 290 288 287 285 284 282 280 278 277 274 272 270 268 265 263 261 259 257 255 253 250 248 246 243 241 239 236 235 232 231 229 228 227 226 224 224 223 222 220 219 217 216 215 214 212 211 210 209 207 206 205 205 205 205 205 205 205 205 205 205 205 205 205 205 205 204 204 204 204 205 206 207 208
317 316 316 314 313 311 309 307 304 301 299 296 294 292 290 289 288 286 284 282 280 278 276 274 271 268 266 264 261 260 258 256 253 251 248 246 243 241 238 236 234 232 230 229 227 226 224 222 221 220 219 219 217 215 213 212 211 210 209 208 207 206 205 204 203 203 203 203 203 203 203 203 203 204 204 204 204 204 204 203 203 203 204 205 206 207
Height
10232 10229 10225 10223 10220 10217 10214 10212 10209 10205 10202 10200 10199 10197 10195 10192 10190 10188 10186 10184 10182 10180 10179 10178 10177 10176 10175 10173 10172 10170 10170 10169 10169 10169 10169 10170 10170 10171 10172 10172 10173 10174 10174 10175 10175 10175 10176 10177 10178 10179 10181 10183 10186 10189 10191 10194 10196 10198 10200 10202 10205 10207 10210 10212 10215 10218 10220 10221 10222 10222 10222 10222 10222 10224 10227 10234 10242 10249 10253 10257 10260 10262 10265 10268 10270 10273
10220 10217 10214 10211 10209 10205 10203 10200 10198 10195 10190 10189 10188 10187 10184 10182 10180 10178 10176 10174 10172 10170 10169 10167 10167 10166 10165 10164 10162 10161 10160 10160 10160 10160 10160 10161 10162 10162 10163 10164 10164 10165 10165 10166 10166 10167 10168 10169 10169 10170 10172 10174 10176 10179 10182 10184 10187 10189 10191 10193 10195 10198 10200 10203 10205 10209 10212 10214 10214 10214 10214 10214 10215 10216 10219 10223 10229 10235 10240 10245 10249 10252 10255 10259 10262 10264
10209 10205 10202 10200 10198 10195 10192 10189 10187 10184 10180 10178 10176 10175 10174 10172 10170 10169 10167 10164 10162 10160 10158 10157 10157 10155 10155 10154 10153 10152 10152 10151 10151 10152 10152 10152 10153 10154 10154 10155 10155 10156 10157 10157 10158 10159 10159 10160 10161 10162 10163 10165 10167 10170 10172 10175 10177 10180 10182 10184 10187 10189 10192 10194 10197 10199 10202 10205 10207 10207 10207 10207 10207 10209 10211 10214 10218 10224 10229 10234 10239 10242 10246 10249 10252 10255
10198 10194 10191 10190 10187 10185 10182 10179 10176 10173 10170 10168 10165 10164 10163 10161 10160 10159 10157 10155 10152 10150 10148 10147 10146 10145 10145 10145 10144 10144 10143 10142 10142 10143 10144 10144 10145 10145 10146 10147 10147 10148 10149 10149 10149 10150 10152 10152 10152 10154 10155 10157 10159 10160 10163 10166 10169 10171 10173 10175 10177 10180 10183 10185 10188 10190 10192 10195 10198 10199 10200 10200 10201 10202 10203 10206 10210 10214 10219 10224 10228 10232 10237 10240 10244 10247
10187 10184 10181 10179 10176 10174 10172 10169 10166 10162 10160 10158 10155 10154 10152 10150 10149 10148 10147 10145 10142 10140 10139 10137 10136 10135 10135 10135 10135 10135 10134 10134 10134 10135 10136 10137 10137 10137 10138 10139 10139 10140 10140 10140 10141 10142 10143 10144 10145 10145 10147 10149 10150 10152 10154 10157 10160 10162 10165 10167 10169 10172 10174 10177 10179 10181 10184 10186 10189 10191 10193 10194 10194 10195 10196 10199 10202 10206 10210 10214 10218 10222 10227 10231 10235 10238
10177 10174 10171 10168 10165 10163 10161 10159 10155 10152 10150 10147 10145 10144 10142 10140 10139 10137 10136 10135 10133 10130 10129 10127 10127 10125 10125 10126 10126 10126 10126 10126 10127 10127 10128 10129 10129 10130 10130 10130 10131 10132 10132 10132 10133 10134 10135 10135 10137 10138 10139 10140 10142 10144 10145 10148 10151 10154 10157 10159 10161 10164 10165 10168 10170 10172 10175 10177 10180 10183 10185 10186 10187 10189 10190 10191 10194 10198 10202 10205 10209 10213 10217 10222 10226 10230
10167 10165 10162 10158 10155 10152 10150 10147 10145 10142 10140 10137 10136 10135 10133 10130 10129 10127 10125 10124 10123 10121 10119 10118 10117 10117 10117 10117 10117 10118 10118 10119 10119 10119 10120 10120 10121 10122 10122 10122 10123 10123 10124 10124 10125 10126 10127 10127 10129 10130 10131 10133 10134 10136 10138 10140 10143 10145 10149 10151 10154 10155 10157 10159 10162 10164 10166 10169 10172 10174 10177 10179 10180 10181 10183 10185 10187 10190 10194 10197 10200 10204 10209 10213 10217 10222
10157 10154 10152 10149 10145 10142 10139 10137 10135 10132 10129 10127 10127 10125 10124 10122 10119 10117 10115 10114 10113 10112 10110 10109 10108 10108 10108 10109 10109 10110 10110 10110 10111 10111 10112 10112 10113 10114 10114 10114 10115 10115 10116 10117 10117 10118 10119 10120 10120 10122 10124 10125 10127 10129 10130 10133 10135 10138 10140 10143 10145 10147 10149 10151 10153 10155 10158 10160 10164 10166 10169 10171 10172 10174 10176 10178 10180 10182 10185 10189 10192 10196 10200 10204 10209 10214
10147 10144 10140 10139 10135 10131 10128 10126 10125 10122 10119 10117 10117 10116 10114 10112 10110 10108 10106 10104 10104 10102 10101 10100 10100 10100 10100 10100 10101 10102 10102 10103 10103 10104 10104 10104 10105 10105 10105 10106 10107 10107 10108 10109 10110 10110 10112 10112 10114 10115 10116 10117 10119 10121 10123 10125 10127 10130 10132 10135 10137 10140 10141 10143 10145 10147 10150 10153 10156 10159 10161 10163 10165 10167 10169 10171 10173 10175 10179 10182 10185 10189 10192 10196 10201 10205
10137 10134 10130 10127 10125 10122 10118 10115 10114 10112 10110 10107 10106 10105 10105 10103 10101 10100 10098 10095 10094 10093 10092 10092 10092 10092 10092 10092 10092 10093 10094 10095 10095 10096 10096 10096 10097 10097 10098 10098 10099 10100 10100 10102 10102 10104 10104 10105 10107 10108 10109 10110 10112 10114 10116 10118 10120 10122 10125 10127 10130 10132 10134 10136 10138 10140 10144 10146 10149 10151 10154 10155 10158 10160 10162 10164 10167 10169 10172 10175 10178 10181 10185 10189 10193 10198
10127 10124 10120 10117 10114 10112 10109 10105 10104 10102 10100 10099 10097 10096 10095 10094 10092 10091 10090 10088 10086 10084 10084 10084 10084 10085 10085 10084 10084 10084 10085 10087 10088 10089 10089 10089 10089 10089 10090 10090 10091 10092 10094 10094 10095 10097 10097 10099 10100 10100 10102 10104 10105 10107 10109 10111 10113 10115 10117 10120 10123 10125 10127 10129 10131 10134 10136 10139 10141 10144 10146 10149 10150 10153 10155 10157 10160 10162 10165 10168 10171 10174 10178 10182 10186 10190
10117 10114 10111 10108 10105 10102 10099 10095 10094 10092 10090 10089 10087 10087 10086 10084 10083 10082 10082 10080 10079 10076 10075 10075 10075 10076 10077 10077 10077 10077 10077 10079 10080 10081 10081 10081 10081 10082 10082 10084 10085 10086 10087 10089 10089 10090 10091 10092 10092 10094 10095 10097 10099 10100 10102 10104 10106 10109 10111 10114 10115 10118 10120 10122 10124 10126 10129 10131 10134 10136 10139 10141 10144 10146 10149 10151 10154 10156 10159 10161 10164 10168 10171 10175 10179 10183
10109 10105 10102 10099 10095 10092 10089 10086 10084 10082 10081 10080 10079 10077 10077 10075 10074 10074 10074 10074 10072 10069 10067 10067 10067 10068 10069 10069 10069 10069 10070 10070 10072 10073 10074 10074 10074 10075 10075 10076 10077 10079 10080 10081 10082 10083 10084 10085 10085 10087 10089 10090 10092 10094 10096 10098 10100 10102 10104 10107 10109 10111 10113 10115 10117 10119 10122 10124 10127 10129 10132 10134 10137 10139 10142 10144 10147 10149 10152 10155 10158 10161 10165 10169 10172 10176
10100 10097 10094 10090 10087 10083 10080 10077 10075 10073 10072 10071 10070 10069 10068 10067 10066 10065 10065 10064 10063 10062 10060 10059 10059 10060 10060 10061 10062 10062 10064 10064 10064 10065 10066 10066 10067 10067 10068 10069 10070 10072 10073 10074 10075 10076 10077 10078 10079 10080 10082 10084 10086 10089 10090 10092 10094 10095 10098 10100 10102 10104 10107 10109 10110 10113 10115 10118 10120 10123 10125 10128 10130 10132 10135 10137 10140 10142 10145 10148 10151 10154 10158 10162 10165 10169
10094 10090 10085 10082 10079 10075 10071 10068 10066 10065 10064 10062 10062 10060 10060 10059 10059 10057 10056 10055 10055 10054 10054 10052 10052 10052 10052 10053 10054 10055 10056 10057 10057 10058 10059 10059 10060 10061 10061 10062 10064 10065 10067 10067 10069 10070 10070 10071 10072 10074 10077 10079 10080 10082 10084 10086 10088 10090 10092 10094 10095 10098 10100 10102 10104 10107 10109 10112 10114 10117 10119 10121 10124 10125 10128 10130 10133 10135 10138 10141 10144 10147 10151 10155 10159 10163
10086 10082 10078 10074 10070 10067 10063 10060 10057 10056 10055 10055 10054 10054 10052 10051 10050 10049 10048 10048 10047 10047 10046 10046 10045 10045 10045 10045 10046 10047 10049 10050 10051 10052 10053 10054 10054 10054 10055 10056 10058 10060 10060 10061 10062 10064 10064 10065 10067 10069 10071 10073 10075 10077 10079 10080 10082 10084 10085 10087 10089 10092 10094 10096 10099 10101 10103 10105 10108 10110 10112 10115 10117 10119 10121 10124 10126 10129 10131 10134 10137 10140 10144 10148 10152 10156
10079 10074 10070 10066 10063 10059 10055 10052 10050 10049 10049 10048 10047 10045 10044 10042 10042 10041 10040 10040 10040 10040 10039 10039 10039 10039 10038 10037 10038 10039 10041 10044 10045 10047 10048 10048 10047 10047 10049 10050 10052 10054 10055 10055 10056 10057 10059 10060 10061 10064 10065 10067 10069 10071 10073 10075 10077 10078 10080 10082 10084 10086 10089 10090 10093 10095 10097 10099 10102 10104 10106 10108 10110 10112 10114 10117 10119 10122 10125 10127 10130 10134 10137 10142 10145 10150
10072 10067 10062 10059 10055 10052 10048 10045 10043 10042 10041 10040 10039 10037 10036 10035 10034 10034 10034 10034 10033 10032 10032 10032 10032 10032 10032 10030 10030 10032 10035 10039 10041 10042 10042 10042 10041 10041 10042 10044 10047 10049 10049 10049 10050 10052 10053 10055 10057 10059 10060 10062 10064 10065 10067 10069 10071 10073 10075 10077 10079 10080 10083 10085 10087 10089 10092 10094 10095 10097 10099 10101 10103 10105 10107 10110 10112 10115 10118 10121 10124 10127 10131 10135 10139 10144
10064 10060 10055 10051 10048 10045 10042 10039 10036 10035 10034 10033 10032 10030 10029 10028 10027 10027 10027 10026 10026 10025 10025 10025 10025 10025 10025 10025 10024 10026 10030 10034 10036 10037 10036 10035 10035 10035 10037 10039 10041 10043 10044 10044 10045 10047 10048 10050 10052 10054 10055 10057 10059 10060 10062 10064 10066 10068 10069 10071 10074 10075 10077 10080 10082 10084 10085 10087 10089 10090 10092 10094 10096 10099 10101 10104 10106 10109 10112 10115 10118 10122 10125 10129 10133 10137
10056 10052 10047 10043 10040 10038 10035 10032 10030 10028 10027 10026 10025 10024 10022 10021 10020 10020 10020 10020 10019 10019 10019 10019 10019 10019 10019 10019 10020 10022 10025 10028 10030 10030 10030 10029 10029 10030 10032 10034 10037 10038 10039 10039 10040 10042 10044 10046 10048 10049 10050 10052 10054 10055 10057 10059 10061 10063 10065 10067 10069 10070 10072 10074 10075 10077 10079 10080 10082 10084 10085 10088 10090 10092 10095 10097 10100 10103 10105 10109 10112 10115 10119 10123 10127 10131
10049 10045 10040 10036 10034 10032 10029 10026 10024 10022 10021 10020 10019 10017 10016 10015 10014 10014 10013 10013 10013 10013 10014 10014 10014 10014 10014 10014 10015 10017 10020 10022 10024 10025 10024 10024 10024 10025 10027 10030 10032 10034 10034 10034 10035 10037 10039 10041 10042 10044 10045 10047 10048 10050 10052 10054 10055 10057 10059 10061 10063 10064 10065 10067 10069 10070 10072 10074 10075 10077 10079 10082 10084 10086 10089 10091 10094 10097 10100 10103 10106 10110 10113 10117 10121 10125
10040 10037 10033 10030 10027 10025 10023 10020 10019 10017 10015 10014 10013 10012 10010 10009 10009 10008 10007 10007 10008 10008 10009 10009 10008 10008 10009 10010 10011 10013 10015 10018 10019 10019 10018 10018 10018 10020 10023 10026 10028 10029 10029 10030 10031 10033 10035 10036 10037 10039 10040 10042 10043 10045 10047 10049 10050 10052 10054 10055 10057 10059 10060 10061 10063 10064 10066 10068 10070 10072 10074 10076 10078 10080 10083 10085 10088 10091 10094 10097 10100 10104 10107 10111 10115 10119
10033 10030 10026 10024 10021 10019 10017 10015 10014 10012 10010 10009 10007 10006 10005 10004 10003 10002 10002 10003 10003 10003 10002 10002 10002 10003 10004 10005 10007 10009 10010 10012 10013 10013 10013 10013 10014 10016 10019 10022 10024 10024 10025 10025 10027 10029 10030 10031 10032 10034 10035 10037 10039 10040 10042 10044 10045 10047 10049 10050 10052 10053 10054 10055 10057 10059 10060 10062 10064 10066 10068 10070 10072 10075 10077 10080 10082 10085 10089 10092 10095 10098 10102 10105 10109 10113
10027 10024 10020 10017 10015 10014 10012 10010 10009 10007 10005 10003 10002 10000 9999 9999 9998 9997 9997 9998 9997 9997 9997 9997 9998 9999 10000 10001 10003 10004 10006 10007 10007 10008 10008 10009 10010 10012 10015 10017 10019 10019 10020 10021 10023 10024 10025 10027 10028 10029 10031 10032 10034 10035 10037 10039 10041 10042 10044 10045 10046 10047 10049 10050 10051 10053 10055 10057 10059 10061 10063 10065 10067 10070 10072 10074 10077 10080 10083 10086 10089 10092 10096 10100 10103 10107
10021 10017 10014 10012 10010 10008 10007 10005 10004 10002 10000 9999 9997 9995 9995 9994 9994 9993 9992 9992 9992 9992 9992 9993 9994 9994 9995 9997 9999 10000 10001 10002 10003 10004 10004 10005 10007 10009 10011 10014 10014 10015 10015 10017 10019 10020 10020 10022 10023 10025 10027 10028 10030 10032 10034 10035 10037 10038 10039 10040 10041 10042 10044 10045 10047 10048 10050 10052 10054 10055 10058 10060 10062 10064 10067 10069 10072 10075 10077 10080 10084 10087 10090 10094 10097 10101
10015 10012 10010 10007 10005 10003 10002 10000 9999 9997 9995 9994 9992 9991 9990 9990 9989 9989 9989 9989 9988 9988 9988 9989 9990 9991 9992 9994 9995 9995 9997 9998 9999 10000 10000 10002 10003 10005 10007 10009 10010 10010 10011 10012 10014 10015 10016 10017 10019 10020 10022 10024 10026 10028 10029 10030 10032 10033 10034 10035 10036 10037 10039 10040 10042 10043 10045 10047 10049 10050 10053 10055 10057 10059 10062 10064 10067 10070 10072 10075 10079 10082 10085 10089 10092 10096
10010 10007 10004 10002 10000 9999 9997 9995 9994 9993 9991 9990 9989 9987 9986 9986 9985 9985 9984 9984 9984 9984 9985 9985 9986 9987 9989 9990 9991 9992 9993 9994 9995 9996 9997 9999 10000 10001 10002 10004 10005 10005 10007 10008 10009 10011 10012 10013 10015 10016 10018 10019 10021 10022 10024 10025 10027 10028 10029 10030 10031 10032 10034 10035 10037 10039 10040 10042 10044 10046 10048 10050 10052 10054 10057 10059 10062 10065 10067 10070 10073 10077 10080 10084 10087 10091
10005 10002 10000 9998 9996 9994 9993 9992 9990 9989 9987 9986 9984 9984 9982 9982 9982 9981 9980 9980 9980 9980 9980 9982 9983 9984 9985 9986 9987 9989 9990 9990 9992 9993 9994 9995 9996 9997 9998 9999 10000 10001 10002 10004 10005 10007 10008 10009 10010 10012 10014 10015 10017 10019 10020 10021 10022 10024 10025 10025 10027 10028 10029 10031 10032 10034 10036 10037 10039 10042 10044 10045 10047 10050 10052 10055 10057 10060 10062 10065 10069 10072 10075 10079 10083 10087
10000 9999 9996 9994 9992 9990 9989 9987 9986 9985 9984 9982 9980 9979 9979 9979 9978 9977 9976 9976 9977 9977 9977 9979 9980 9980 9982 9983 9984 9985 9987 9987 9989 9989 9990 9991 9992 9992 9994 9995 9996 9997 9999 10000 10001 10003 10004 10005 10007 10008 10010 10011 10013 10014 10016 10017 10019 10019 10020 10021 10022 10024 10025 10027 10029 10030 10032 10034 10035 10037 10039 10041 10044 10045 10048 10050 10053 10055 10058 10061 10064 10067 10071 10075 10078 10082
9996 9994 9992 9990 9988 9986 9985 9984 9982 9981 9979 9978 9977 9975 9975 9974 9974 9974 9973 9973 9974 9974 9975 9975 9976 9977 9979 9980 9982 9983 9984 9984 9985 9985 9985 9987 9987 9988 9990 9990 9992 9993 9994 9996 9997 9999 10000 10002 10004 10005 10006 10008 10009 10010 10012 10013 10014 10015 10016 10017 10018 10019 10021 10022 10024 10026 10028 10029 10031 10033 10035 10037 10039 10041 10044 10046 10049 10051 10054 10057 10060 10064 10067 10070 10074 10077
9991 9990 9988 9986 9984 9983 9981 9980 9979 9977 9976 9975 9974 9972 9972 9971 9970 9970 9970 9970 9971 9972 9972 9972 9973 9974 9976 9977 9979 9980 9980 9980 9980 9981 9982 9982 9983 9984 9985 9987 9988 9989 9991 9993 9994 9995 9997 9999 10000 10001 10002 10004 10005 10007 10008 10009 10010 10010 10012 10013 10014 10015 10017 10019 10020 10022 10024 10026 10027 10029 10031 10033 10035 10037 10040 10042 10045 10047 10050 10053 10056 10059 10062 10065 10069 10072
9987 9985 9984 9982 9981 9979 9978 9977 9975 9974 9972 9971 9970 9969 9969 9968 9967 9967 9967 9968 9969 9969 9969 9969 9970 9972 9973 9974 9975 9976 9977 9976 9976 9977 9977 9979 9979 9980 9982 9984 9985 9986 9987 9989 9991 9993 9994 9995 9997 9998 9999 10000 10002 10003 10004 10005 10005 10007 10008 10009 10010 10012 10014 10015 10017 10019 10021 10023 10024 10025 10027 10030 10032 10034 10036 10039 10041 10044 10047 10049 10052 10055 10058 10062 10065 10069
9984 9982 9980 9979 9977 9976 9975 9974 9972 9971 9970 9969 9967 9967 9965 9965 9965 9965 9965 9965 9965 9965 9966 9967 9967 9969 9970 9971 9972 9972 9972 9972 9972 9973 9974 9975 9976 9977 9979 9980 9982 9983 9984 9986 9988 9990 9991 9992 9994 9995 9996 9997 9998 9999 10000 10001 10002 10003 10004 10005 10007 10009 10010 10012 10014 10015 10018 10019 10020 10022 10024 10026 10028 10030 10032 10035 10037 10040 10043 10045 10049 10051 10054 10058 10061 10065
9980 9979 9977 9975 9974 9973 9972 9970 9969 9968 9967 9965 9965 9964 9963 9962 9962 9962 9962 9962 9962 9963 9964 9964 9965 9965 9967 9967 9968 9969 9969 9969 9969 9969 9970 9972 9973 9974 9975 9977 9979 9980 9982 9984 9985 9987 9988 9990 9990 9992 9992 9994 9995 9995 9997 9997 9998 9999 10000 10002 10004 10005 10007 10009 10010 10012 10014 10015 10017 10018 10020 10022 10024 10026 10029 10031 10034 10037 10039 10042 10045 10048 10051 10054 10058 10061
9977 9975 9974 9972 9971 9970 9969 9967 9966 9965 9964 9963 9962 9961 9960 9960 9960 9959 9959 9959 9960 9960 9961 9962 9962 9963 9964 9965 9965 9965 9965 9965 9965 9967 9968 9969 9970 9972 9974 9975 9976 9977 9979 9980 9982 9984 9985 9987 9988 9989 9989 9990 9991 9992 9993 9994 9995 9996 9997 9999 10000 10002 10004 10005 10007 10009 10010 10012 10013 10014 10016 10019 10020 10023 10025 10028 10030 10033 10036 10039 10042 10045 10048 10051 10054 10058
9974 9973 9971 9970 9969 9967 9966 9965 9964 9962 9962 9960 9960 9959 9958 9957 9957 9957 9957 9957 9957 9958 9959 9959 9960 9960 9961 9962 9962 9962 9962 9962 9963 9964 9966 9967 9969 9970 9972 9972 9974 9975 9977 9978 9980 9981 9982 9984 9985 9985 9986 9987 9988 9989 9989 9990 9991 9992 9994 9995 9997 9999 10000 10002 10004 10005 10007 10009 10010 10011 10014 10015 10017 10020 10022 10025 10027 10030 10033 10036 10039 10042 10045 10049 10052 10055
9972 9970 9969 9967 9966 9964 9963 9962 9961 9960 9959 9958 9957 9957 9956 9955 9955 9955 9955 9955 9955 9955 9956 9957 9957 9958 9959 9959 9959 9959 9960 9960 9961 9962 9964 9965 9967 9968 9969 9970 9971 9972 9974 9975 9977 9979 9980 9980 9982 9982 9983 9984 9984 9985 9985 9987 9988 9989 9991 9992 9994 9996 9997 9999 10000 10002 10004 10005 10007 10009 10010 10012 10015 10017 10020 10022 10025 10027 10030 10034 10036 10039 10042 10046 10049 10053
9969 9967 9966 9965 9964 9962 9961 9960 9959 9958 9957 9956 9955 9954 9954 9954 9953 9953 9953 9953 9953 9954 9954 9954 9955 9955 9956 9956 9957 9957 9958 9959 9960 9960 9962 9964 9965 9966 9967 9968 9969 9970 9971 9972 9974 9975 9977 9978 9979 9979 9980 9980 9981 9982 9982 9984 9985 9987 9988 9990 9991 9993 9994 9996 9997 9999 10001 10002 10004 10005 10007 10010 10012 10014 10017 10019 10022 10025 10027 10030 10034 10037 10040 10043 10047 10050
9967 9965 9964 9962 9961 9960 9959 9957 9957 9955 9955 9954 9953 9952 9952 9952 9951 9951 9951 9951 9951 9952 9952 9952 9953 9954 9954 9954 9955 9955 9956 9957 9958 9959 9960 9961 9962 9964 9964 9965 9966 9967 9969 9970 9971 9972 9974 9975 9975 9976 9977 9977 9978 9979 9980 9981 9982 9984 9985 9987 9989 9990 9992 9994 9995 9997 9998 10000 10001 10003 10005 10007 10009 10012 10014 10017 10019 10022 10025 10027 10030 10034 10037 10040 10044 10047
9964 9963 9961 9960 9959 9957 9956 9955 9954 9954 9952 9952 9951 9950 9950 9950 9950 9950 9949 9949 9950 9950 9950 9951 9952 9952 9952 9953 9954 9954 9955 9955 9957 9957 9958 9959 9960 9961 9962 9963 9964 9965 9966 9967 9969 9970 9971 9972 9972 9973 9974 9974 9975 9976 9977 9979 9980 9982 9983 9985 9986 9987 9989 9990 9992 9994 9995 9997 9999 10000 10003 10005 10007 10009 10012 10014 10017 10019 10022 10025 10028 10031 10034 10037 10040 10043
9962 9960 9959 9958 9957 9955 9954 9953 9952 9952 9950 9950 9950 9949 9949 9949 9949 9949 9949 9948 9949 9949 9949 9949 9950 9950 9950 9951 9952 9952 9953 9954 9955 9955 9956 9957 9958 9959 9960 9961 9962 9963 9964 9965 9966 9967 9969 9969 9970 9970 9971 9972 9973 9974 9975 9977 9978 9979 9981 9982 9984 9985 9987 9989 9990 9991 9993 9995 9997 9999 10000 10003 10005 10007 10010 10012 10014 10017 10020 10022 10025 10029 10032 10035 10037 10040
9960 9959 9957 9956 9955 9954 9952 9952 9950 9950 9949 9949 9948 9948 9947 9947 9947 9947 9947 9947 9947 9947 9948 9948 9949 9949 9949 9950 9950 9951 9951 9952 9953 9954 9954 9955 9956 9957 9958 9959 9960 9961 9962 9963 9964 9965 9966 9967 9967 9968 9969 9970 9971 9972 9974 9975 9976 9977 9979 9980 9982 9983 9984 9986 9987 9989 9990 9992 9994 9997 9999 10000 10003 10005 10007 10010 10012 10015 10018 10020 10023 10026 10030 10033 10036 10039
9958 9957 9955 9954 9953 9952 9951 9950 9949 9949 9948 9947 9947 9947 9946 9946 9946 9946 9946 9946 9946 9947 9947 9947 9947 9947 9948 9948 9949 9949 9950 9950 9951 9952 9953 9954 9954 9955 9956 9957 9958 9959 9960 9961 9962 9962 9964 9964 9965 9966 9967 9968 9969 9970 9972 9973 9974 9975 9977 9978 9979 9980 9982 9983 9985 9987 9988 9990 9992 9994 9996 9999 10000 10003 10005 10007 10010 10012 10015 10018 10021 10024 10027 10030 10033 10037
9956 9955 9954 9952 9952 9950 9950 9949 9948 9947 9947 9946 9946 9945 9945 9945 9945 9945 9945 9945 9945 9945 9945 9945 9945 9946 9946 9947 9947 9947 9948 9949 9950 9950 9951 9952 9952 9953 9954 9955 9956 9957 9958 9959 9960 9960 9961 9962 9963 9964 9965 9966 9967 9969 9970 9971 9972 9974 9975 9976 9977 9978 9979 9981 9982 9984 9986 9989 9990 9993 9995 9997 9999 10001 10004 10005 10008 10010 10014 10017 10019 10022 10025 10028 10031 10034
9954 9953 9952 9951 9950 9949 9948 9947 9947 9946 9945 9945 9945 9944 9944 9944 9944 9944 9944 9944 9944 9944 9944 9944 9944 9945 9945 9945 9945 9946 9947 9947 9948 9949 9949 9950 9951 9952 9952 9954 9954 9955 9956 9957 9958 9959 9959 9960 9962 9962 9964 9965 9966 9967 9968 9969 9970 9972 9972 9974 9975 9976 9977 9979 9981 9982 9985 9987 9989 9991 9993 9995 9997 9999 10001 10004 10006 10009 10012 10014 10017 10020 10023 10025 10029 10031
9953 9952 9950 9950 9949 9948 9947 9947 9945 9945 9945 9944 9944 9944 9943 9943 9943 9943 9943 9943 9943 9942 9943 9943 9944 9944 9944 9944 9945 9945 9945 9946 9947 9948 9948 9949 9949 9950 9951 9952 9953 9954 9954 9955 9956 9957 9958 9959 9960 9961 9962 9963 9964 9965 9967 9967 9969 9970 9970 9972 9973 9974 9976 9977 9979 9981 9983 9985 9987 9989 9991 9993 9995 9997 9999 10002 10004 10007 10010 10012 10015 10017 10020 10023 10026 10029
9951 9950 9949 9949 9947 9947 9946 9945 9945 9944 9944 9944 9943 9942 9942 9942 9942 9942 9942 9942 9942 9942 9942 9942 9942 9943 9943 9944 9944 9944 9945 9945 9946 9947 9947 9948 9949 9949 9950 9950 9951 9952 9953 9954 9955 9955 9957 9957 9959 9960 9960 9962 9963 9964 9965 9965 9967 9968 9969 9970 9972 9973 9974 9975 9977 9979 9982 9983 9985 9987 9989 9991 9993 9995 9997 10000 10002 10005 10008 10010 10013 10015 10018 10021 10024 10027
9950 9949 9948 9947 9947 9946 9945 9945 9944 9944 9943 9942 9942 9942 9942 9942 9942 9942 9941 9941 9941 9942 9942 9942 9942 9942 9942 9943 9944 9944 9944 9945 9945 9945 9946 9947 9947 9948 9949 9949 9950 9951 9952 9953 9954 9954 9955 9956 9957 9958 9959 9960 9961 9962 9963 9964 9965 9966 9967 9969 9970 9971 9972 9974 9976 9978 9980 9982 9983 9985 9987 9989 9991 9993 9995 9998 10000 10003 10005 10008 10011 10014 10016 10019 10022 10024
9949 9948 9947 9947 9946 9945 9945 9944 9944 9943 9942 9942 9942 9941 9941 9941 9941 9941 9941 9940 9941 9941 9941 9941 9942 9942 9942 9942 9942 9943 9944 9944 9944 9945 9945 9946 9946 9947 9948 9949 9949 9950 9951 9952 9952 9954 9954 9955 9956 9957 9958 9959 9960 9960 9962 9963 9964 9965 9966 9967 9969 9970 9971 9973 9975 9976 9978 9980 9982 9984 9985 9987 9989 9992 9994 9996 9999 10001 10004 10006 10009 10011 10014 10017 10019 10022
9948 9947 9947 9946 9945 9945 9944 9944 9943 9942 9942 9942 9941 9941 9940 9940 9940 9940 9940 9940 9940 9940 9940 9941 9941 9941 9942 9942 9942 9942 9943 9943 9944 9944 9945 9945 9945 9946 9947 9947 9949 9949 9950 9951 9952 9952 9954 9954 9955 9956 9957 9958 9959 9960 9960 9962 9963 9964 9965 9966 9967 9969 9970 9972 9973 9975 9977 9979 9980 9982 9984 9986 9988 9990 9992 9995 9997 9999 10002 10004 10007 10010 10012 10015 10017 10020
9947 9947 9946 9945 9945 9944 9944 9943 9942 9942 9941 9941 9940 9940 9940 9940 9940 9940 9940 9940 9940 9940 9940 9940 9940 9941 9941 9941 9942 9942 9942 9942 9943 9944 9944 9944 9945 9945 9946 9947 9947 9949 9949 9950 9950 9951 9952 9953 9954 9955 9956 9957 9958 9959 9960 9961 9962 9963 9964 9965 9967 9968 9969 9970 9972 9974 9975 9977 9979 9981 9983 9985 9987 9989 9990 9993 9995 9998 10000 10003 10005 10008 10010 10013 10015 10019